Year,Month,Day,Hour,Minute,Value (Times are PST for temperature in C)
2008,06,26,00,00,14.30
2008,06,26,00,01,14.30
2008,06,26,00,02,14.20
2008,06,26,00,03,14.10
2008,06,26,00,04,14.00
2008,06,26,00,05,13.90
2008,06,26,00,06,13.80
2008,06,26,00,07,13.80
2008,06,26,00,08,13.70
2008,06,26,00,09,13.60
2008,06,26,00,10,13.60
2008,06,26,00,11,13.50
2008,06,26,00,12,13.50
2008,06,26,00,13,13.40
2008,06,26,00,14,13.40
2008,06,26,00,15,13.40
2008,06,26,00,16,13.40
2008,06,26,00,17,13.30
2008,06,26,00,18,13.30
2008,06,26,00,19,13.30
2008,06,26,00,20,13.30
2008,06,26,00,21,13.30
2008,06,26,00,22,13.30
2008,06,26,00,23,13.30
2008,06,26,00,24,13.30
2008,06,26,00,25,13.30
2008,06,26,00,26,13.30
2008,06,26,00,27,13.30
2008,06,26,00,28,13.40
2008,06,26,00,29,13.30
2008,06,26,00,30,13.30
2008,06,26,00,31,13.40
2008,06,26,00,32,13.40
2008,06,26,00,33,13.40
2008,06,26,00,34,13.30
2008,06,26,00,35,13.30
2008,06,26,00,36,13.30
2008,06,26,00,37,13.30
2008,06,26,00,38,13.30
2008,06,26,00,39,13.30
2008,06,26,00,40,13.30
2008,06,26,00,41,13.30
2008,06,26,00,42,13.40
2008,06,26,00,43,13.40
2008,06,26,00,44,13.40
2008,06,26,00,45,13.40
2008,06,26,00,46,13.40
2008,06,26,00,47,13.40
2008,06,26,00,48,13.40
2008,06,26,00,49,13.40
2008,06,26,00,50,13.30
2008,06,26,00,51,13.30
2008,06,26,00,52,13.20
2008,06,26,00,53,13.20
2008,06,26,00,54,13.10
2008,06,26,00,55,13.10
2008,06,26,00,56,13.00
2008,06,26,00,57,13.00
2008,06,26,00,58,12.90
2008,06,26,00,59,12.90
2008,06,26,01,00,12.90
2008,06,26,01,01,12.90
2008,06,26,01,02,12.90
2008,06,26,01,03,12.90
2008,06,26,01,04,12.90
2008,06,26,01,05,12.80
2008,06,26,01,06,12.80
2008,06,26,01,07,12.80
2008,06,26,01,08,12.80
2008,06,26,01,09,12.80
2008,06,26,01,10,12.70
2008,06,26,01,11,12.70
2008,06,26,01,12,12.70
2008,06,26,01,13,12.70
2008,06,26,01,14,12.70
2008,06,26,01,15,12.70
2008,06,26,01,16,12.70
2008,06,26,01,17,12.70
2008,06,26,01,18,12.60
2008,06,26,01,19,12.60
2008,06,26,01,20,12.60
2008,06,26,01,21,12.70
2008,06,26,01,22,12.70
2008,06,26,01,23,12.70
2008,06,26,01,24,12.70
2008,06,26,01,25,12.70
2008,06,26,01,26,12.70
2008,06,26,01,27,12.60
2008,06,26,01,28,12.60
2008,06,26,01,29,12.60
2008,06,26,01,30,12.60
2008,06,26,01,31,12.60
2008,06,26,01,32,12.60
2008,06,26,01,33,12.60
2008,06,26,01,34,12.60
2008,06,26,01,35,12.60
2008,06,26,01,36,12.60
2008,06,26,01,37,12.60
2008,06,26,01,38,12.50
2008,06,26,01,39,12.60
2008,06,26,01,40,12.50
2008,06,26,01,41,12.50
2008,06,26,01,42,12.50
2008,06,26,01,43,12.50
2008,06,26,01,44,12.50
2008,06,26,01,45,12.50
2008,06,26,01,46,12.50
2008,06,26,01,47,12.50
2008,06,26,01,48,12.50
2008,06,26,01,49,12.40
2008,06,26,01,50,12.40
2008,06,26,01,51,12.40
2008,06,26,01,52,12.40
2008,06,26,01,53,12.40
2008,06,26,01,54,12.40
2008,06,26,01,55,12.40
2008,06,26,01,56,12.40
2008,06,26,01,57,12.40
2008,06,26,01,58,12.40
2008,06,26,01,59,12.40
2008,06,26,02,00,12.30
2008,06,26,02,01,12.30
2008,06,26,02,02,12.30
2008,06,26,02,03,12.30
2008,06,26,02,04,12.30
2008,06,26,02,05,12.30
2008,06,26,02,06,12.30
2008,06,26,02,07,12.30
2008,06,26,02,08,12.30
2008,06,26,02,09,12.30
2008,06,26,02,10,12.30
2008,06,26,02,11,12.30
2008,06,26,02,12,12.30
2008,06,26,02,13,12.30
2008,06,26,02,14,12.30
2008,06,26,02,15,12.30
2008,06,26,02,16,12.30
2008,06,26,02,17,12.30
2008,06,26,02,18,12.20
2008,06,26,02,19,12.20
2008,06,26,02,20,12.20
2008,06,26,02,21,12.20
2008,06,26,02,22,12.30
2008,06,26,02,23,12.30
2008,06,26,02,24,12.30
2008,06,26,02,25,12.30
2008,06,26,02,26,12.40
2008,06,26,02,27,12.40
2008,06,26,02,28,12.40
2008,06,26,02,29,12.50
2008,06,26,02,30,12.50
2008,06,26,02,31,12.50
2008,06,26,02,32,12.50
2008,06,26,02,33,12.50
2008,06,26,02,34,12.50
2008,06,26,02,35,12.50
2008,06,26,02,36,12.50
2008,06,26,02,37,12.50
2008,06,26,02,38,12.50
2008,06,26,02,39,12.50
2008,06,26,02,40,12.50
2008,06,26,02,41,12.50
2008,06,26,02,42,12.50
2008,06,26,02,43,12.50
2008,06,26,02,44,12.50
2008,06,26,02,45,12.50
2008,06,26,02,46,12.50
2008,06,26,02,47,12.50
2008,06,26,02,48,12.50
2008,06,26,02,49,12.50
2008,06,26,02,50,12.50
2008,06,26,02,51,12.50
2008,06,26,02,52,12.50
2008,06,26,02,53,12.50
2008,06,26,02,54,12.50
2008,06,26,02,55,12.50
2008,06,26,02,56,12.50
2008,06,26,02,57,12.50
2008,06,26,02,58,12.50
2008,06,26,02,59,12.50
2008,06,26,03,00,12.60
2008,06,26,03,01,12.50
2008,06,26,03,02,12.50
2008,06,26,03,03,12.50
2008,06,26,03,04,12.50
2008,06,26,03,05,12.50
2008,06,26,03,06,12.50
2008,06,26,03,07,12.40
2008,06,26,03,08,12.40
2008,06,26,03,09,12.40
2008,06,26,03,10,12.40
2008,06,26,03,11,12.40
2008,06,26,03,12,12.40
2008,06,26,03,13,12.40
2008,06,26,03,14,12.40
2008,06,26,03,15,12.30
2008,06,26,03,16,12.30
2008,06,26,03,17,12.30
2008,06,26,03,18,12.30
2008,06,26,03,19,12.30
2008,06,26,03,20,12.30
2008,06,26,03,21,12.20
2008,06,26,03,22,12.20
2008,06,26,03,23,12.10
2008,06,26,03,24,12.10
2008,06,26,03,25,12.00
2008,06,26,03,26,12.00
2008,06,26,03,27,11.90
2008,06,26,03,28,11.90
2008,06,26,03,29,11.90
2008,06,26,03,30,11.80
2008,06,26,03,31,11.80
2008,06,26,03,32,11.80
2008,06,26,03,33,11.80
2008,06,26,03,34,11.80
2008,06,26,03,35,11.80
2008,06,26,03,36,11.90
2008,06,26,03,37,11.90
2008,06,26,03,38,11.90
2008,06,26,03,39,11.90
2008,06,26,03,40,11.90
2008,06,26,03,41,11.90
2008,06,26,03,42,12.00
2008,06,26,03,43,12.00
2008,06,26,03,44,12.00
2008,06,26,03,45,12.10
2008,06,26,03,46,12.10
2008,06,26,03,47,12.10
2008,06,26,03,48,12.10
2008,06,26,03,49,12.10
2008,06,26,03,50,12.10
2008,06,26,03,51,12.10
2008,06,26,03,52,12.10
2008,06,26,03,53,12.10
2008,06,26,03,54,12.10
2008,06,26,03,55,12.10
2008,06,26,03,56,12.10
2008,06,26,03,57,12.10
2008,06,26,03,58,12.10
2008,06,26,03,59,12.20
2008,06,26,04,00,12.20
2008,06,26,04,01,12.20
2008,06,26,04,02,12.20
2008,06,26,04,03,12.20
2008,06,26,04,04,12.20
2008,06,26,04,05,12.10
2008,06,26,04,06,12.10
2008,06,26,04,07,12.00
2008,06,26,04,08,12.00
2008,06,26,04,09,11.90
2008,06,26,04,10,11.90
2008,06,26,04,11,11.80
2008,06,26,04,12,11.80
2008,06,26,04,13,11.80
2008,06,26,04,14,11.80
2008,06,26,04,15,11.80
2008,06,26,04,16,11.80
2008,06,26,04,17,11.80
2008,06,26,04,18,11.80
2008,06,26,04,19,11.80
2008,06,26,04,20,11.80
2008,06,26,04,21,11.90
2008,06,26,04,22,11.90
2008,06,26,04,23,11.90
2008,06,26,04,24,11.90
2008,06,26,04,25,11.90
2008,06,26,04,26,11.90
2008,06,26,04,27,11.90
2008,06,26,04,28,11.80
2008,06,26,04,29,11.80
2008,06,26,04,30,11.80
2008,06,26,04,31,11.80
2008,06,26,04,32,11.80
2008,06,26,04,33,11.80
2008,06,26,04,34,11.90
2008,06,26,04,35,11.90
2008,06,26,04,36,12.00
2008,06,26,04,37,12.00
2008,06,26,04,38,12.00
2008,06,26,04,39,12.00
2008,06,26,04,40,12.00
2008,06,26,04,41,12.00
2008,06,26,04,42,12.00
2008,06,26,04,43,12.00
2008,06,26,04,44,12.00
2008,06,26,04,45,12.00
2008,06,26,04,46,12.00
2008,06,26,04,47,11.90
2008,06,26,04,48,11.90
2008,06,26,04,49,11.90
2008,06,26,04,50,11.90
2008,06,26,04,51,11.90
2008,06,26,04,52,12.00
2008,06,26,04,53,12.00
2008,06,26,04,54,12.10
2008,06,26,04,55,12.10
2008,06,26,04,56,12.10
2008,06,26,04,57,12.20
2008,06,26,04,58,12.20
2008,06,26,04,59,12.20
2008,06,26,05,00,12.20
2008,06,26,05,01,12.20
2008,06,26,05,02,12.20
2008,06,26,05,03,12.20
2008,06,26,05,04,12.20
2008,06,26,05,05,12.20
2008,06,26,05,06,12.20
2008,06,26,05,07,12.20
2008,06,26,05,08,12.10
2008,06,26,05,09,12.10
2008,06,26,05,10,12.10
2008,06,26,05,11,12.00
2008,06,26,05,12,12.00
2008,06,26,05,13,12.00
2008,06,26,05,14,12.00
2008,06,26,05,15,12.00
2008,06,26,05,16,12.00
2008,06,26,05,17,12.00
2008,06,26,05,18,11.90
2008,06,26,05,19,11.90
2008,06,26,05,20,11.90
2008,06,26,05,21,11.90
2008,06,26,05,22,11.90
2008,06,26,05,23,11.90
2008,06,26,05,24,11.90
2008,06,26,05,25,11.90
2008,06,26,05,26,11.90
2008,06,26,05,27,11.90
2008,06,26,05,28,11.90
2008,06,26,05,29,11.90
2008,06,26,05,30,11.90
2008,06,26,05,31,11.90
2008,06,26,05,32,11.90
2008,06,26,05,33,11.90
2008,06,26,05,34,11.90
2008,06,26,05,35,11.90
2008,06,26,05,36,11.90
2008,06,26,05,37,11.90
2008,06,26,05,38,11.90
2008,06,26,05,39,11.90
2008,06,26,05,40,11.90
2008,06,26,05,41,11.90
2008,06,26,05,42,12.00
2008,06,26,05,43,12.00
2008,06,26,05,44,12.10
2008,06,26,05,45,12.10
2008,06,26,05,46,12.20
2008,06,26,05,47,12.30
2008,06,26,05,48,12.30
2008,06,26,05,49,12.40
2008,06,26,05,50,12.40
2008,06,26,05,51,12.50
2008,06,26,05,52,12.50
2008,06,26,05,53,12.60
2008,06,26,05,54,12.60
2008,06,26,05,55,12.60
2008,06,26,05,56,12.70
2008,06,26,05,57,12.70
2008,06,26,05,58,12.70
2008,06,26,05,59,12.70
2008,06,26,06,00,12.70
2008,06,26,06,01,12.70
2008,06,26,06,02,12.70
2008,06,26,06,03,12.70
2008,06,26,06,04,12.70
2008,06,26,06,05,12.70
2008,06,26,06,06,12.60
2008,06,26,06,07,12.60
2008,06,26,06,08,12.60
2008,06,26,06,09,12.60
2008,06,26,06,10,12.60
2008,06,26,06,11,12.60
2008,06,26,06,12,12.60
2008,06,26,06,13,12.60
2008,06,26,06,14,12.60
2008,06,26,06,15,12.50
2008,06,26,06,16,12.50
2008,06,26,06,17,12.60
2008,06,26,06,18,12.60
2008,06,26,06,19,12.50
2008,06,26,06,20,12.60
2008,06,26,06,21,12.60
2008,06,26,06,22,12.60
2008,06,26,06,23,12.60
2008,06,26,06,24,12.60
2008,06,26,06,25,12.50
2008,06,26,06,26,12.50
2008,06,26,06,27,12.50
2008,06,26,06,28,12.50
2008,06,26,06,29,12.50
2008,06,26,06,30,12.60
2008,06,26,06,31,12.60
2008,06,26,06,32,12.60
2008,06,26,06,33,12.60
2008,06,26,06,34,12.60
2008,06,26,06,35,12.60
2008,06,26,06,36,12.60
2008,06,26,06,37,12.70
2008,06,26,06,38,12.70
2008,06,26,06,39,12.70
2008,06,26,06,40,12.80
2008,06,26,06,41,12.80
2008,06,26,06,42,12.80
2008,06,26,06,43,12.80
2008,06,26,06,44,12.80
2008,06,26,06,45,12.80
2008,06,26,06,46,12.80
2008,06,26,06,47,12.80
2008,06,26,06,48,12.80
2008,06,26,06,49,12.80
2008,06,26,06,50,12.80
2008,06,26,06,51,12.80
2008,06,26,06,52,12.80
2008,06,26,06,53,12.80
2008,06,26,06,54,12.90
2008,06,26,06,55,12.90
2008,06,26,06,56,12.90
2008,06,26,06,57,12.90
2008,06,26,06,58,12.90
2008,06,26,06,59,12.90
2008,06,26,07,00,12.90
2008,06,26,07,01,13.00
2008,06,26,07,02,13.00
2008,06,26,07,03,13.00
2008,06,26,07,04,13.10
2008,06,26,07,05,13.10
2008,06,26,07,06,13.10
2008,06,26,07,07,13.10
2008,06,26,07,08,13.10
2008,06,26,07,09,13.10
2008,06,26,07,10,13.00
2008,06,26,07,11,13.10
2008,06,26,07,12,13.00
2008,06,26,07,13,13.00
2008,06,26,07,14,13.00
2008,06,26,07,15,13.00
2008,06,26,07,16,13.00
2008,06,26,07,17,13.00
2008,06,26,07,18,13.00
2008,06,26,07,19,13.00
2008,06,26,07,20,13.00
2008,06,26,07,21,13.00
2008,06,26,07,22,13.00
2008,06,26,07,23,13.00
2008,06,26,07,24,13.00
2008,06,26,07,25,13.00
2008,06,26,07,26,13.00
2008,06,26,07,27,13.00
2008,06,26,07,28,13.00
2008,06,26,07,29,13.00
2008,06,26,07,30,13.00
2008,06,26,07,31,13.00
2008,06,26,07,32,13.00
2008,06,26,07,33,12.90
2008,06,26,07,34,12.90
2008,06,26,07,35,12.90
2008,06,26,07,36,13.00
2008,06,26,07,37,13.00
2008,06,26,07,38,13.00
2008,06,26,07,39,13.10
2008,06,26,07,40,13.10
2008,06,26,07,41,13.10
2008,06,26,07,42,13.10
2008,06,26,07,43,13.10
2008,06,26,07,44,13.10
2008,06,26,07,45,13.10
2008,06,26,07,46,13.10
2008,06,26,07,47,13.10
2008,06,26,07,48,13.10
2008,06,26,07,49,13.10
2008,06,26,07,50,13.10
2008,06,26,07,51,13.20
2008,06,26,07,52,13.20
2008,06,26,07,53,13.20
2008,06,26,07,54,13.20
2008,06,26,07,55,13.20
2008,06,26,07,56,13.20
2008,06,26,07,57,13.20
2008,06,26,07,58,13.30
2008,06,26,07,59,13.30
2008,06,26,08,00,13.30
2008,06,26,08,01,13.30
2008,06,26,08,02,13.30
2008,06,26,08,03,13.30
2008,06,26,08,04,13.30
2008,06,26,08,05,13.30
2008,06,26,08,06,13.30
2008,06,26,08,07,13.30
2008,06,26,08,08,13.30
2008,06,26,08,09,13.30
2008,06,26,08,10,13.30
2008,06,26,08,11,13.30
2008,06,26,08,12,13.40
2008,06,26,08,13,13.40
2008,06,26,08,14,13.40
2008,06,26,08,15,13.40
2008,06,26,08,16,13.40
2008,06,26,08,17,13.40
2008,06,26,08,18,13.40
2008,06,26,08,19,13.40
2008,06,26,08,20,13.40
2008,06,26,08,21,13.50
2008,06,26,08,22,13.40
2008,06,26,08,23,13.40
2008,06,26,08,24,13.40
2008,06,26,08,25,13.50
2008,06,26,08,26,13.50
2008,06,26,08,27,13.50
2008,06,26,08,28,13.50
2008,06,26,08,29,13.60
2008,06,26,08,30,13.60
2008,06,26,08,31,13.60
2008,06,26,08,32,13.70
2008,06,26,08,33,13.70
2008,06,26,08,34,13.70
2008,06,26,08,35,13.70
2008,06,26,08,36,13.70
2008,06,26,08,37,13.70
2008,06,26,08,38,13.70
2008,06,26,08,39,13.70
2008,06,26,08,40,13.70
2008,06,26,08,41,13.80
2008,06,26,08,42,13.80
2008,06,26,08,43,13.80
2008,06,26,08,44,13.80
2008,06,26,08,45,13.80
2008,06,26,08,46,13.80
2008,06,26,08,47,13.80
2008,06,26,08,48,13.80
2008,06,26,08,49,13.80
2008,06,26,08,50,13.80
2008,06,26,08,51,13.80
2008,06,26,08,52,13.90
2008,06,26,08,53,13.90
2008,06,26,08,54,13.90
2008,06,26,08,55,13.90
2008,06,26,08,56,13.90
2008,06,26,08,57,13.90
2008,06,26,08,58,13.90
2008,06,26,08,59,13.90
2008,06,26,09,00,13.90
2008,06,26,09,01,14.00
2008,06,26,09,02,14.00
2008,06,26,09,03,14.10
2008,06,26,09,04,14.10
2008,06,26,09,05,14.10
2008,06,26,09,06,14.10
2008,06,26,09,07,14.10
2008,06,26,09,08,14.10
2008,06,26,09,09,14.10
2008,06,26,09,10,14.10
2008,06,26,09,11,14.10
2008,06,26,09,12,14.10
2008,06,26,09,13,14.20
2008,06,26,09,14,14.20
2008,06,26,09,15,14.20
2008,06,26,09,16,14.10
2008,06,26,09,17,14.10
2008,06,26,09,18,14.10
2008,06,26,09,19,14.10
2008,06,26,09,20,14.20
2008,06,26,09,21,14.20
2008,06,26,09,22,14.30
2008,06,26,09,23,14.30
2008,06,26,09,24,14.20
2008,06,26,09,25,14.20
2008,06,26,09,26,14.20
2008,06,26,09,27,14.30
2008,06,26,09,28,14.30
2008,06,26,09,29,14.30
2008,06,26,09,30,14.30
2008,06,26,09,31,14.30
2008,06,26,09,32,14.20
2008,06,26,09,33,14.20
2008,06,26,09,34,14.20
2008,06,26,09,35,14.20
2008,06,26,09,36,14.20
2008,06,26,09,37,14.30
2008,06,26,09,38,14.30
2008,06,26,09,39,14.40
2008,06,26,09,40,14.40
2008,06,26,09,41,14.40
2008,06,26,09,42,14.40
2008,06,26,09,43,14.40
2008,06,26,09,44,14.40
2008,06,26,09,45,14.30
2008,06,26,09,46,14.30
2008,06,26,09,47,14.30
2008,06,26,09,48,14.40
2008,06,26,09,49,14.40
2008,06,26,09,50,14.40
2008,06,26,09,51,14.40
2008,06,26,09,52,14.40
2008,06,26,09,53,14.40
2008,06,26,09,54,14.40
2008,06,26,09,55,14.40
2008,06,26,09,56,14.40
2008,06,26,09,57,14.40
2008,06,26,09,58,14.40
2008,06,26,09,59,14.40
2008,06,26,10,00,14.40
2008,06,26,10,01,14.40
2008,06,26,10,02,14.40
2008,06,26,10,03,14.40
2008,06,26,10,04,14.40
2008,06,26,10,05,14.40
2008,06,26,10,06,14.40
2008,06,26,10,07,14.50
2008,06,26,10,08,14.50
2008,06,26,10,09,14.50
2008,06,26,10,10,14.60
2008,06,26,10,11,14.60
2008,06,26,10,12,14.60
2008,06,26,10,13,14.60
2008,06,26,10,14,14.60
2008,06,26,10,15,14.60
2008,06,26,10,16,14.70
2008,06,26,10,17,14.70
2008,06,26,10,18,14.70
2008,06,26,10,19,14.70
2008,06,26,10,20,14.80
2008,06,26,10,21,14.80
2008,06,26,10,22,14.80
2008,06,26,10,23,14.90
2008,06,26,10,24,14.80
2008,06,26,10,25,14.80
2008,06,26,10,26,14.80
2008,06,26,10,27,14.80
2008,06,26,10,28,14.80
2008,06,26,10,29,14.80
2008,06,26,10,30,14.80
2008,06,26,10,31,14.90
2008,06,26,10,32,15.00
2008,06,26,10,33,15.00
2008,06,26,10,34,15.00
2008,06,26,10,35,15.00
2008,06,26,10,36,15.00
2008,06,26,10,37,15.00
2008,06,26,10,38,15.00
2008,06,26,10,39,15.00
2008,06,26,10,40,15.00
2008,06,26,10,41,15.00
2008,06,26,10,42,15.10
2008,06,26,10,43,15.20
2008,06,26,10,44,15.30
2008,06,26,10,45,15.30
2008,06,26,10,46,15.30
2008,06,26,10,47,15.30
2008,06,26,10,48,15.30
2008,06,26,10,49,15.30
2008,06,26,10,50,15.40
2008,06,26,10,51,15.50
2008,06,26,10,52,15.60
2008,06,26,10,53,15.70
2008,06,26,10,54,15.80
2008,06,26,10,55,15.80
2008,06,26,10,56,15.80
2008,06,26,10,57,15.60
2008,06,26,10,58,15.30
2008,06,26,10,59,15.00
2008,06,26,11,00,14.90
2008,06,26,11,01,14.70
2008,06,26,11,02,14.60
2008,06,26,11,03,14.40
2008,06,26,11,04,14.20
2008,06,26,11,05,14.10
2008,06,26,11,06,14.00
2008,06,26,11,07,13.90
2008,06,26,11,08,13.70
2008,06,26,11,09,13.60
2008,06,26,11,10,13.50
2008,06,26,11,11,13.40
2008,06,26,11,12,13.30
2008,06,26,11,13,13.20
2008,06,26,11,14,13.20
2008,06,26,11,15,13.10
2008,06,26,11,16,13.00
2008,06,26,11,17,12.90
2008,06,26,11,18,12.90
2008,06,26,11,19,13.00
2008,06,26,11,20,13.00
2008,06,26,11,21,13.10
2008,06,26,11,22,13.10
2008,06,26,11,23,13.20
2008,06,26,11,24,13.20
2008,06,26,11,25,13.20
2008,06,26,11,26,13.30
2008,06,26,11,27,13.30
2008,06,26,11,28,13.40
2008,06,26,11,29,13.30
2008,06,26,11,30,13.30
2008,06,26,11,31,13.30
2008,06,26,11,32,13.40
2008,06,26,11,33,13.40
2008,06,26,11,34,13.50
2008,06,26,11,35,13.50
2008,06,26,11,36,13.60
2008,06,26,11,37,13.60
2008,06,26,11,38,13.60
2008,06,26,11,39,13.60
2008,06,26,11,40,13.60
2008,06,26,11,41,13.50
2008,06,26,11,42,13.50
2008,06,26,11,43,13.60
2008,06,26,11,44,13.60
2008,06,26,11,45,13.60
2008,06,26,11,46,13.70
2008,06,26,11,47,13.70
2008,06,26,11,48,13.70
2008,06,26,11,49,13.70
2008,06,26,11,50,13.70
2008,06,26,11,51,13.70
2008,06,26,11,52,13.70
2008,06,26,11,53,13.60
2008,06,26,11,54,13.60
2008,06,26,11,55,13.50
2008,06,26,11,56,13.50
2008,06,26,11,57,13.40
2008,06,26,11,58,13.50
2008,06,26,11,59,13.50
2008,06,26,12,00,13.60
2008,06,26,12,01,13.60
2008,06,26,12,02,13.60
2008,06,26,12,03,13.60
2008,06,26,12,04,13.60
2008,06,26,12,05,13.60
2008,06,26,12,06,13.60
2008,06,26,12,07,13.60
2008,06,26,12,08,13.70
2008,06,26,12,09,13.70
2008,06,26,12,10,13.80
2008,06,26,12,11,13.70
2008,06,26,12,12,13.80
2008,06,26,12,13,13.80
2008,06,26,12,14,13.80
2008,06,26,12,15,13.90
2008,06,26,12,16,14.00
2008,06,26,12,17,14.10
2008,06,26,12,18,14.20
2008,06,26,12,19,14.20
2008,06,26,12,20,14.30
2008,06,26,12,21,14.40
2008,06,26,12,22,14.40
2008,06,26,12,23,14.40
2008,06,26,12,24,14.40
2008,06,26,12,25,14.30
2008,06,26,12,26,14.30
2008,06,26,12,27,14.30
2008,06,26,12,28,14.30
2008,06,26,12,29,14.30
2008,06,26,12,30,14.30
2008,06,26,12,31,14.30
2008,06,26,12,32,14.30
2008,06,26,12,33,14.30
2008,06,26,12,34,14.20
2008,06,26,12,35,14.20
2008,06,26,12,36,14.20
2008,06,26,12,37,14.10
2008,06,26,12,38,14.00
2008,06,26,12,39,13.90
2008,06,26,12,40,13.80
2008,06,26,12,41,13.80
2008,06,26,12,42,13.80
2008,06,26,12,43,13.70
2008,06,26,12,44,13.60
2008,06,26,12,45,13.60
2008,06,26,12,46,13.50
2008,06,26,12,47,13.50
2008,06,26,12,48,13.50
2008,06,26,12,49,13.50
2008,06,26,12,50,13.40
2008,06,26,12,51,13.40
2008,06,26,12,52,13.40
2008,06,26,12,53,13.50
2008,06,26,12,54,13.50
2008,06,26,12,55,13.50
2008,06,26,12,56,13.60
2008,06,26,12,57,13.60
2008,06,26,12,58,13.60
2008,06,26,12,59,13.70
2008,06,26,13,00,13.80
2008,06,26,13,01,13.80
2008,06,26,13,02,13.70
2008,06,26,13,03,13.60
2008,06,26,13,04,13.60
2008,06,26,13,05,13.60
2008,06,26,13,06,13.60
2008,06,26,13,07,13.60
2008,06,26,13,08,13.60
2008,06,26,13,09,13.60
2008,06,26,13,10,13.60
2008,06,26,13,11,13.60
2008,06,26,13,12,13.50
2008,06,26,13,13,13.50
2008,06,26,13,14,13.50
2008,06,26,13,15,13.50
2008,06,26,13,16,13.40
2008,06,26,13,17,13.40
2008,06,26,13,18,13.40
2008,06,26,13,19,13.40
2008,06,26,13,20,13.40
2008,06,26,13,21,13.50
2008,06,26,13,22,13.40
2008,06,26,13,23,13.40
2008,06,26,13,24,13.40
2008,06,26,13,25,13.40
2008,06,26,13,26,13.50
2008,06,26,13,27,13.50
2008,06,26,13,28,13.60
2008,06,26,13,29,13.70
2008,06,26,13,30,13.80
2008,06,26,13,31,13.90
2008,06,26,13,32,13.90
2008,06,26,13,33,13.90
2008,06,26,13,34,13.90
2008,06,26,13,35,13.90
2008,06,26,13,36,13.90
2008,06,26,13,37,14.10
2008,06,26,13,38,14.20
2008,06,26,13,39,14.30
2008,06,26,13,40,14.30
2008,06,26,13,41,14.20
2008,06,26,13,42,14.20
2008,06,26,13,43,14.30
2008,06,26,13,44,14.30
2008,06,26,13,45,14.40
2008,06,26,13,46,14.50
2008,06,26,13,47,14.60
2008,06,26,13,48,14.70
2008,06,26,13,49,14.80
2008,06,26,13,50,14.90
2008,06,26,13,51,15.00
2008,06,26,13,52,15.00
2008,06,26,13,53,15.00
2008,06,26,13,54,15.00
2008,06,26,13,55,15.00
2008,06,26,13,56,15.00
2008,06,26,13,57,15.00
2008,06,26,13,58,15.00
2008,06,26,13,59,15.00
2008,06,26,14,00,15.00
2008,06,26,14,01,15.00
2008,06,26,14,02,15.00
2008,06,26,14,03,15.00
2008,06,26,14,04,15.00
2008,06,26,14,05,15.00
2008,06,26,14,06,15.00
2008,06,26,14,07,15.00
2008,06,26,14,08,15.00
2008,06,26,14,09,14.90
2008,06,26,14,10,14.80
2008,06,26,14,11,14.70
2008,06,26,14,12,14.60
2008,06,26,14,13,14.60
2008,06,26,14,14,14.50
2008,06,26,14,15,14.40
2008,06,26,14,16,14.40
2008,06,26,14,17,14.40
2008,06,26,14,18,14.40
2008,06,26,14,19,14.50
2008,06,26,14,20,14.40
2008,06,26,14,21,14.40
2008,06,26,14,22,14.40
2008,06,26,14,23,14.40
2008,06,26,14,24,14.40
2008,06,26,14,25,14.40
2008,06,26,14,26,14.40
2008,06,26,14,27,14.40
2008,06,26,14,28,14.40
2008,06,26,14,29,14.40
2008,06,26,14,30,14.50
2008,06,26,14,31,14.40
2008,06,26,14,32,14.50
2008,06,26,14,33,14.50
2008,06,26,14,34,14.50
2008,06,26,14,35,14.60
2008,06,26,14,36,14.60
2008,06,26,14,37,14.70
2008,06,26,14,38,14.70
2008,06,26,14,39,14.80
2008,06,26,14,40,14.80
2008,06,26,14,41,14.70
2008,06,26,14,42,14.70
2008,06,26,14,43,14.70
2008,06,26,14,44,14.60
2008,06,26,14,45,14.50
2008,06,26,14,46,14.40
2008,06,26,14,47,14.40
2008,06,26,14,48,14.40
2008,06,26,14,49,14.40
2008,06,26,14,50,14.40
2008,06,26,14,51,14.40
2008,06,26,14,52,14.40
2008,06,26,14,53,14.40
2008,06,26,14,54,14.30
2008,06,26,14,55,14.30
2008,06,26,14,56,14.30
2008,06,26,14,57,14.40
2008,06,26,14,58,14.40
2008,06,26,14,59,14.40
2008,06,26,15,00,14.40
2008,06,26,15,01,14.40
2008,06,26,15,02,14.40
2008,06,26,15,03,14.50
2008,06,26,15,04,14.50
2008,06,26,15,05,14.40
2008,06,26,15,06,14.40
2008,06,26,15,07,14.40
2008,06,26,15,08,14.40
2008,06,26,15,09,14.40
2008,06,26,15,10,14.40
2008,06,26,15,11,14.40
2008,06,26,15,12,14.40
2008,06,26,15,13,14.40
2008,06,26,15,14,14.40
2008,06,26,15,15,14.50
2008,06,26,15,16,14.60
2008,06,26,15,17,14.70
2008,06,26,15,18,14.70
2008,06,26,15,19,14.80
2008,06,26,15,20,14.80
2008,06,26,15,21,14.80
2008,06,26,15,22,14.90
2008,06,26,15,23,14.90
2008,06,26,15,24,14.90
2008,06,26,15,25,14.80
2008,06,26,15,26,14.80
2008,06,26,15,27,14.80
2008,06,26,15,28,14.80
2008,06,26,15,29,14.80
2008,06,26,15,30,14.80
2008,06,26,15,31,14.80
2008,06,26,15,32,14.70
2008,06,26,15,33,14.70
2008,06,26,15,34,14.60
2008,06,26,15,35,14.60
2008,06,26,15,36,14.60
2008,06,26,15,37,14.50
2008,06,26,15,38,14.60
2008,06,26,15,39,14.50
2008,06,26,15,40,14.50
2008,06,26,15,41,14.40
2008,06,26,15,42,14.40
2008,06,26,15,43,14.50
2008,06,26,15,44,14.50
2008,06,26,15,45,14.50
2008,06,26,15,46,14.60
2008,06,26,15,47,14.70
2008,06,26,15,48,14.60
2008,06,26,15,49,14.70
2008,06,26,15,50,14.70
2008,06,26,15,51,14.80
2008,06,26,15,52,14.80
2008,06,26,15,53,14.80
2008,06,26,15,54,14.70
2008,06,26,15,55,14.70
2008,06,26,15,56,14.60
2008,06,26,15,57,14.60
2008,06,26,15,58,14.70
2008,06,26,15,59,14.80
2008,06,26,16,00,14.90
2008,06,26,16,01,14.90
2008,06,26,16,02,15.00
2008,06,26,16,03,15.00
2008,06,26,16,04,15.00
2008,06,26,16,05,15.00
2008,06,26,16,06,15.00
2008,06,26,16,07,15.00
2008,06,26,16,08,14.90
2008,06,26,16,09,14.80
2008,06,26,16,10,14.90
2008,06,26,16,11,14.90
2008,06,26,16,12,14.90
2008,06,26,16,13,14.90
2008,06,26,16,14,14.80
2008,06,26,16,15,14.90
2008,06,26,16,16,14.90
2008,06,26,16,17,15.00
2008,06,26,16,18,15.00
2008,06,26,16,19,14.90
2008,06,26,16,20,14.80
2008,06,26,16,21,14.70
2008,06,26,16,22,14.70
2008,06,26,16,23,14.60
2008,06,26,16,24,14.60
2008,06,26,16,25,14.60
2008,06,26,16,26,14.50
2008,06,26,16,27,14.50
2008,06,26,16,28,14.40
2008,06,26,16,29,14.40
2008,06,26,16,30,14.40
2008,06,26,16,31,14.50
2008,06,26,16,32,14.60
2008,06,26,16,33,14.60
2008,06,26,16,34,14.50
2008,06,26,16,35,14.50
2008,06,26,16,36,14.50
2008,06,26,16,37,14.50
2008,06,26,16,38,14.60
2008,06,26,16,39,14.60
2008,06,26,16,40,14.70
2008,06,26,16,41,14.70
2008,06,26,16,42,14.70
2008,06,26,16,43,14.70
2008,06,26,16,44,14.70
2008,06,26,16,45,14.70
2008,06,26,16,46,14.80
2008,06,26,16,47,14.80
2008,06,26,16,48,14.80
2008,06,26,16,49,14.80
2008,06,26,16,50,14.80
2008,06,26,16,51,14.80
2008,06,26,16,52,14.70
2008,06,26,16,53,14.70
2008,06,26,16,54,14.70
2008,06,26,16,55,14.80
2008,06,26,16,56,14.80
2008,06,26,16,57,14.80
2008,06,26,16,58,14.80
2008,06,26,16,59,14.90
2008,06,26,17,00,14.80
2008,06,26,17,01,14.80
2008,06,26,17,02,14.90
2008,06,26,17,03,15.00
2008,06,26,17,04,15.00
2008,06,26,17,05,15.00
2008,06,26,17,06,15.00
2008,06,26,17,07,15.00
2008,06,26,17,08,15.00
2008,06,26,17,09,15.00
2008,06,26,17,10,15.00
2008,06,26,17,11,14.90
2008,06,26,17,12,14.80
2008,06,26,17,13,14.80
2008,06,26,17,14,14.80
2008,06,26,17,15,14.80
2008,06,26,17,16,14.80
2008,06,26,17,17,14.80
2008,06,26,17,18,14.80
2008,06,26,17,19,14.80